Location: The Saddle
(36.8333°N, 80.3417°W)
Time: 16:02:06
(UTC-04:00)

ISS - Visible Passes

Search period start: 10 May 2026 00:00
Search period end: 20 May 2026 00:00
Orbit: 414 x 424 km, 51.6° (Epoch: 10 May)

Date Brightness Start Highest point End Pass type
(mag) Time Alt. Az. Time Alt. Az. Time Alt. Az.
10 May -1.8 04:28:49 19° SE 04:28:49 19° SE 04:29:55 10° SE visible
10 May -2.9 21:04:43 10° WSW 21:07:59 53° NW 21:11:16 10° NE visible
10 May -0.3 22:44:18 10° NW 22:45:24 11° NNW 22:46:29 10° N visible
11 May -0.6 21:55:31 10° WNW 21:57:32 15° NNW 21:59:33 10° NNE visible
12 May -1.0 21:07:06 10° W 21:09:43 21° NNW 21:12:20 10° NNE visible
14 May -0.5 21:10:31 10° NW 21:11:37 11° NNW 21:12:44 10° N visible
17 May -0.7 23:39:35 10° NNW 23:40:38 14° N 23:40:38 14° N visible
18 May -0.9 22:52:25 10° N 22:53:54 12° NNE 22:54:32 12° NNE visible
19 May -0.9 23:40:20 10° NW 23:41:23 18° NNW 23:41:23 18° NNW visible
